Location: Góry Miechowskie
(50.3599°N, 20.1803°E)
Time: 23:15:15
(UTC+00:00)

S-56A Canister/Altair - Pass Details

Date: 14 September 2024
Orbit: 636 x 2487 km, 38.9° (Epoch: 09 October)

Event Time Altitude Azimuth Distance (km) Brightness Sun altitude
Rises 00:45:31 0° 268° (W) 4,999 - -29.5°
Reaches altitude 10° 00:51:39 10° 242° (WSW) 4,430 - -28.9°
Maximum altitude 00:55:45 12° 222° (SW) 4,473 - -28.4°
Drops below altitude 10° 01:00:10 10° 203° (SSW) 4,865 - -28.0°
Sets 01:08:00 0° 178° (S) 6,098 - -27.1°
